COSMOS 2251 DEB, 39588

Orbit data source: Space-Track

COSMOS 2251 DEB, 39588 is space debris in LEO originally from a launch on Wed, 16 Jun 1993 UTC launched from the Plesetsk Missile And Space Complex (PKMTR). The debris from Iridium 33, an American commercial communications satellite, has been tracked extensively since its accidental collision with the defunct Russian satellite Cosmos 2251 in 2009. This event, occurring at high speed in low Earth orbit (LEO), generated thousands of pieces of space debris, significantly increasing the risk of further collisions. The Iridium 33 debris cloud has impacted space traffic management and orbital debris mitigation strategies, making it a subject of ongoing study in space situational awareness.

Loading next visibility...
Identifier
39588, 1993-036BUT
Orbit
LEO
Country
Flag of CISCIS
Related business
Manufacturer
Unknown
Mission
Spacecraft
Bus & Motor
Unknown
Mass
Unknown
Launch date (UTC)
1993-06-16 (32 years ago)
Launch vehicle
Unknown
Launch site
Plesetsk Missile And Space Complex (PKMTR)
Object type
Payload
Rocket body
Debris
Shape & HBR
Unknown shape, 0.1 m
Radar Cross Section
Small (<0.1 m²)

Expand to show TLE details & history
Last TLE update: 3 months ago

TLE from 3 months ago
0 COSMOS 2251 DEB
1 39588U 93036BUT 25260.09626965  .00150886  00000-0  64067-2 0  9995
2 39588  74.0962  23.4453 0018961 323.8340 209.6560 15.22194696609808
Epoch: 2025-09-17T02:18Z
TLE epoch observation values (Epoch: 2025-09-17T02:18:37.697Z)
Latitude
6.28822°
Longitude
170.72178°
Altitude
512.683 km
Speed
7.602 km/s
True Right ascension
13h 26m 37s
True Declination
6° 14' 58"
Sunlit
Object was in daylight at epoch
Visualization orbit readout
Latitude
Unknown
Longitude
Unknown
Altitude
Unknown
Speed
Unknown
Apparent Right ascension
Unknown
Apparent Declination
Unknown
Sunlit
N/A
Visualization observer readout
Local Sidereal Time
02:49:33
Azimuth
Unknown
Elevation
Unknown
Doppler factor
Unknown
Orbital elements
Apogee altitude
509.782 km
Perigee altitude
483.711 km
Semi-major axis
6,874.883 km
Eccentricity
0.0019
Inclination
74.0962°
RAAN
23.4453°
Arg. of periapsis
323.834°
True anomaly
209.54871°
Mean anomaly
209.656°
Eccentric anomaly
209.60234°
Mean motion
3.80755 °/min
Orbital period
94.55 mins
BSTAR
0.0064067

Documentation

Showing up to 5 results
|